STARLINK-34566 (64765 NORAD) Tracking and Keplerian Element Data

This shows tracking and keplerian element data for the satellite.

Feedback or suggestion? Click here.




ElementValue
Catalog64765
NameSTARLINK-34566
Epoch Orbit2658
Epoch Day354.20363035
Epoch Year2025
RAAN251.8465
Inclination53.1576
Eccentricity0.0001217
Argument of Perigee91.4054
Mean Anonmoly268.7087
Mean Motion15.30205843
Decay Rate0.00019598
L11 64765U 25147L 25354.20363035 .00019598 00000+0 67194-3 0 9999
L22 64765 53.1576 251.8465 0001217 91.4054 268.7087 15.30205843 26582



Live tracking and technical data element details for STARLINK-34566 (NORAD 64765). STARLINK-34566 can be tracked NOW for your location showing map with azimuth and elevation plus other details from your city location.







IsCatalogInMostPopularTable: catalog: 64765, numindb: 9
Update: records affected: 1



GetName: 64765 STARLINK-34566

Hit Count: updated at: Mon, 20 Apr 2026 09:45:37 GMT